| time (UTC) | temp F | wind direction | speed MPH | gust MPH | rain 1hr in | rain 24hr in | rain mn in | humidity % | barometer mb |
| 20260504173101 | 58 | 219 | 1.0 | 7.0 | 0.00 | 0.00 | 0.00 | 78 | 1001.2 |
| 20260504172549 | 58 | 155 | 1.0 | 5.0 | 0.00 | 0.00 | 0.00 | 77 | 1001.2 |
| 20260504172037 | 58 | 190 | 1.0 | 6.0 | 0.00 | 0.00 | 0.00 | 78 | 1001.1 |
| 20260504171509 | 58 | 188 | 3.0 | 6.0 | 0.00 | 0.00 | 0.00 | 79 | 1001.1 |
| 20260504171058 | 58 | 171 | 3.0 | 7.0 | 0.00 | 0.00 | 0.00 | 78 | 1001.0 |
| 20260504170545 | 58 | 331 | 0.0 | 7.0 | 0.00 | 0.00 | 0.00 | 78 | 1001.0 |
| 20260504160106 | 56 | 207 | 1.0 | 7.0 | 0.00 | 0.00 | 0.00 | 81 | 1000.7 |
| 20260504151048 | 56 | 192 | 0.0 | 5.0 | 0.00 | 0.00 | 0.00 | 80 | 1000.4 |
| 20260504150535 | 56 | 331 | 0.0 | 4.0 | 0.00 | 0.00 | 0.00 | 80 | 1000.5 |
| 20260504141058 | 54 | 183 | 0.0 | 2.0 | 0.00 | 0.00 | 0.00 | 83 | 999.8 |
| 20260504140546 | 54 | 178 | 0.0 | 1.0 | 0.00 | 0.00 | 0.00 | 82 | 999.7 |
| 20260504130540 | 55 | 197 | 0.0 | 3.0 | 0.00 | 0.00 | 0.00 | 79 | 998.7 |
| 20260504110545 | 60 | 299 | 0.0 | 2.0 | 0.00 | 0.00 | 0.00 | 69 | 997.0 |
| 20260504100537 | 65 | 207 | 0.0 | 2.0 | 0.00 | 0.00 | 0.00 | 61 | 996.2 |
| 20260504100105 | 65 | 207 | 0.0 | 2.0 | 0.00 | 0.00 | 0.00 | 62 | 996.2 |
| 20260504081503 | 69 | 265 | 1.0 | 4.0 | 0.00 | 0.00 | 0.00 | 51 | 995.9 |
| 20260504081054 | 69 | 282 | 2.0 | 4.0 | 0.00 | 0.00 | 0.00 | 51 | 995.9 |
| 20260504080541 | 69 | 285 | 1.0 | 4.0 | 0.00 | 0.00 | 0.00 | 50 | 995.8 |
| 20260504060106 | 72 | 269 | 2.0 | 5.0 | 0.00 | 0.00 | 0.00 | 43 | 995.5 |
| 20260504050543 | 73 | 262 | 2.0 | 5.0 | 0.00 | 0.00 | 0.00 | 45 | 995.4 |
| 20260504050104 | 73 | 228 | 2.0 | 8.0 | 0.00 | 0.00 | 0.00 | 44 | 995.3 |
| 20260504045553 | 74 | 240 | 2.0 | 7.0 | 0.00 | 0.00 | 0.00 | 45 | 995.2 |
| 20260504045039 | 74 | 212 | 1.0 | 4.0 | 0.00 | 0.00 | 0.00 | 45 | 995.3 |
| 20260504044603 | 74 | 263 | 2.0 | 4.0 | 0.00 | 0.00 | 0.00 | 46 | 995.2 |
| 20260504044047 | 74 | 313 | 1.0 | 5.0 | 0.00 | 0.00 | 0.00 | 45 | 995.2 |
| 20260504043536 | 74 | 298 | 1.0 | 8.0 | 0.00 | 0.00 | 0.00 | 45 | 995.2 |
| 20260504043008 | 74 | 207 | 1.0 | 3.0 | 0.00 | 0.00 | 0.00 | 45 | 995.2 |
| 20260504042556 | 75 | 329 | 1.0 | 3.0 | 0.00 | 0.00 | 0.00 | 45 | 995.1 |
| 20260504042044 | 75 | 253 | 1.0 | 4.0 | 0.00 | 0.00 | 0.00 | 45 | 995.2 |
| 20260504041506 | 75 | 313 | 1.0 | 4.0 | 0.00 | 0.00 | 0.00 | 45 | 995.2 |
| 20260504041056 | 75 | 280 | 1.0 | 4.0 | 0.00 | 0.00 | 0.00 | 45 | 995.1 |
| 20260504040548 | 75 | 272 | 1.0 | 4.0 | 0.00 | 0.00 | 0.00 | 45 | 994.9 |
| 20260504040014 | 75 | 302 | 1.0 | 4.0 | 0.00 | 0.00 | 0.00 | 45 | 995.0 |
| 20260504035503 | 75 | 249 | 1.0 | 4.0 | 0.00 | 0.00 | 0.00 | 44 | 994.9 |
| 20260504035054 | 75 | 284 | 1.0 | 3.0 | 0.00 | 0.00 | 0.00 | 44 | 994.9 |
| 20260504034525 | 76 | 296 | 0.0 | 5.0 | 0.00 | 0.00 | 0.00 | 44 | 994.9 |
| 20260504034003 | 76 | 292 | 2.0 | 5.0 | 0.00 | 0.00 | 0.00 | 43 | 994.8 |
| 20260504033554 | 76 | 338 | 2.0 | 4.0 | 0.00 | 0.00 | 0.00 | 43 | 994.7 |
| 20260504033034 | 76 | 306 | 1.0 | 4.0 | 0.00 | 0.00 | 0.00 | 42 | 994.7 |
| 20260504032509 | 76 | 268 | 1.0 | 2.0 | 0.00 | 0.00 | 0.00 | 42 | 994.7 |
| 20260504032054 | 77 | 268 | 0.0 | 1.0 | 0.00 | 0.00 | 0.00 | 41 | 994.5 |
| 20260504031529 | 77 | 267 | 0.0 | 4.0 | 0.00 | 0.00 | 0.00 | 41 | 994.4 |
| 20260504031012 | 77 | 277 | 0.0 | 3.0 | 0.00 | 0.00 | 0.00 | 40 | 994.4 |
| 20260504030602 | 78 | 273 | 1.0 | 3.0 | 0.00 | 0.00 | 0.00 | 40 | 994.4 |
| 20260504030021 | 78 | 267 | 1.0 | 3.0 | 0.00 | 0.00 | 0.00 | 40 | 994.3 |
| 20260504025509 | 78 | 5 | 0.0 | 0.0 | 0.00 | 0.00 | 0.00 | 39 | 994.2 |
| 20260504025100 | 78 | 5 | 0.0 | 0.0 | 0.00 | 0.00 | 0.00 | 39 | 994.2 |
| 20260504024539 | 79 | 5 | 0.0 | 2.0 | 0.00 | 0.00 | 0.00 | 38 | 994.2 |
| 20260504024009 | 79 | 5 | 0.0 | 2.0 | 0.00 | 0.00 | 0.00 | 37 | 994.1 |
| 20260504023600 | 80 | 5 | 0.0 | 2.0 | 0.00 | 0.00 | 0.00 | 36 | 994.2 |
| 20260504023019 | 80 | 5 | 0.0 | 1.0 | 0.00 | 0.00 | 0.00 | 36 | 994.1 |
| 20260504022507 | 80 | 5 | 0.0 | 1.0 | 0.00 | 0.00 | 0.00 | 35 | 994.1 |
| 20260504022056 | 80 | 5 | 0.0 | 1.0 | 0.00 | 0.00 | 0.00 | 34 | 994.2 |
| 20260504021525 | 80 | 5 | 0.0 | 1.0 | 0.00 | 0.00 | 0.00 | 34 | 994.1 |
| 20260504021012 | 81 | 5 | 0.0 | 2.0 | 0.00 | 0.00 | 0.00 | 34 | 994.2 |
| 20260504020604 | 81 | 5 | 0.0 | 2.0 | 0.00 | 0.00 | 0.00 | 33 | 994.2 |
| 20260504020020 | 81 | 5 | 0.0 | 3.0 | 0.00 | 0.00 | 0.00 | 33 | 994.2 |
| 20260504015505 | 82 | 5 | 1.0 | 3.0 | 0.00 | 0.00 | 0.00 | 32 | 994.2 |
| 20260504015052 | 82 | 10 | 0.0 | 3.0 | 0.00 | 0.00 | 0.00 | 32 | 994.3 |
| 20260504014513 | 82 | 10 | 1.0 | 3.0 | 0.00 | 0.00 | 0.00 | 32 | 994.3 |
| 20260504014002 | 83 | 5 | 0.0 | 3.0 | 0.00 | 0.00 | 0.00 | 32 | 994.3 |
| 20260504013552 | 83 | 307 | 0.0 | 3.0 | 0.00 | 0.00 | 0.00 | 32 | 994.3 |
| 20260504013014 | 84 | 355 | 0.0 | 4.0 | 0.00 | 0.00 | 0.00 | 31 | 994.4 |
| 20260504012601 | 84 | 277 | 1.0 | 4.0 | 0.00 | 0.00 | 0.00 | 30 | 994.3 |
| 20260504012051 | 84 | 355 | 1.0 | 5.0 | 0.00 | 0.00 | 0.00 | 30 | 994.3 |
| 20260504011514 | 85 | 284 | 1.0 | 5.0 | 0.00 | 0.00 | 0.00 | 29 | 994.4 |
| 20260504011003 | 85 | 23 | 2.0 | 5.0 | 0.00 | 0.00 | 0.00 | 30 | 994.4 |
| 20260504010553 | 85 | 5 | 1.0 | 5.0 | 0.00 | 0.00 | 0.00 | 30 | 994.5 |
| 20260504010013 | 85 | 355 | 1.0 | 5.0 | 0.00 | 0.00 | 0.00 | 29 | 994.6 |
| 20260504005606 | 86 | 39 | 0.0 | 8.0 | 0.00 | 0.00 | 0.00 | 30 | 994.7 |
| 20260504005051 | 86 | 355 | 3.0 | 8.0 | 0.00 | 0.00 | 0.00 | 28 | 994.7 |
| 20260504004527 | 86 | 5 | 2.0 | 5.0 | 0.00 | 0.00 | 0.00 | 27 | 994.8 |
| 20260504004102 | 86 | 14 | 2.0 | 6.0 | 0.00 | 0.00 | 0.00 | 27 | 994.8 |
| 20260504003552 | 87 | 205 | 1.0 | 6.0 | 0.00 | 0.00 | 0.00 | 29 | 994.9 |
| 20260504003011 | 87 | 19 | 2.0 | 8.0 | 0.00 | 0.00 | 0.00 | 30 | 994.9 |
| 20260504002601 | 87 | 136 | 2.0 | 8.0 | 0.00 | 0.00 | 0.00 | 29 | 994.9 |
| 20260504002052 | 87 | 360 | 2.0 | 6.0 | 0.00 | 0.00 | 0.00 | 27 | 994.9 |
| 20260504001510 | 87 | 288 | 1.0 | 9.0 | 0.00 | 0.00 | 0.00 | 29 | 994.9 |
| 20260504001105 | 87 | 22 | 2.0 | 9.0 | 0.00 | 0.00 | 0.00 | 29 | 994.8 |
| 20260504000548 | 88 | 290 | 2.0 | 5.0 | 0.00 | 0.00 | 0.00 | 28 | 994.9 |
| 20260504000008 | 88 | 331 | 2.0 | 8.0 | 0.00 | 0.00 | 0.00 | 29 | 994.9 |
| 20260503235559 | 88 | 62 | 4.0 | 8.0 | 0.00 | 0.00 | 0.00 | 26 | 994.9 |
| 20260503235048 | 87 | 275 | 2.0 | 6.0 | 0.00 | 0.00 | 0.00 | 32 | 994.9 |
| 20260503234507 | 88 | 348 | 2.0 | 10.0 | 0.00 | 0.00 | 0.00 | 34 | 995.0 |
| 20260503234059 | 88 | 5 | 2.0 | 10.0 | 0.00 | 0.00 | 0.00 | 27 | 995.0 |
| 20260503233546 | 88 | 13 | 4.0 | 8.0 | 0.00 | 0.00 | 0.00 | 31 | 995.1 |
| 20260503233017 | 88 | 344 | 3.0 | 8.0 | 0.00 | 0.00 | 0.00 | 31 | 995.1 |
| 20260503232505 | 88 | 49 | 4.0 | 8.0 | 0.00 | 0.00 | 0.00 | 31 | 995.2 |
| 20260503232058 | 88 | 5 | 3.0 | 7.0 | 0.00 | 0.00 | 0.00 | 30 | 995.3 |
| 20260503231515 | 88 | 349 | 3.0 | 10.0 | 0.00 | 0.00 | 0.00 | 34 | 995.3 |
| 20260503231005 | 88 | 313 | 4.0 | 9.0 | 0.00 | 0.00 | 0.00 | 34 | 995.3 |
| 20260503230553 | 88 | 296 | 3.0 | 9.0 | 0.00 | 0.00 | 0.00 | 38 | 995.4 |
| 20260503230009 | 89 | 50 | 1.0 | 8.0 | 0.00 | 0.00 | 0.00 | 30 | 995.4 |
| 20260503225554 | 88 | 355 | 3.0 | 9.0 | 0.00 | 0.00 | 0.00 | 29 | 995.5 |
| 20260503225042 | 89 | 49 | 3.0 | 8.0 | 0.00 | 0.00 | 0.00 | 34 | 995.7 |
| 20260503224511 | 88 | 282 | 2.0 | 8.0 | 0.00 | 0.00 | 0.00 | 31 | 995.8 |
| 20260503224101 | 88 | 52 | 2.0 | 8.0 | 0.00 | 0.00 | 0.00 | 30 | 995.9 |
| 20260503223549 | 88 | 85 | 4.0 | 7.0 | 0.00 | 0.00 | 0.00 | 33 | 995.9 |
| 20260503223009 | 88 | 236 | 2.0 | 6.0 | 0.00 | 0.00 | 0.00 | 30 | 996.0 |
| 20260503222558 | 88 | 60 | 3.0 | 6.0 | 0.00 | 0.00 | 0.00 | 31 | 996.0 |
| 20260503222047 | 88 | 355 | 0.0 | 6.0 | 0.00 | 0.00 | 0.00 | 30 | 996.1 |
| 20260503221508 | 88 | 338 | 4.0 | 6.0 | 0.00 | 0.00 | 0.00 | 31 | 996.2 |
| 20260503221103 | 88 | 55 | 3.0 | 8.0 | 0.00 | 0.00 | 0.00 | 31 | 996.3 |
| 20260503220547 | 88 | 360 | 4.0 | 8.0 | 0.00 | 0.00 | 0.00 | 32 | 996.4 |
| 20260503220006 | 88 | 337 | 2.0 | 5.0 | 0.00 | 0.00 | 0.00 | 32 | 996.6 |
| 20260503215555 | 88 | 50 | 2.0 | 9.0 | 0.00 | 0.00 | 0.00 | 33 | 996.6 |
| 20260503215041 | 87 | 48 | 4.0 | 9.0 | 0.00 | 0.00 | 0.00 | 34 | 996.8 |
| 20260503214502 | 87 | 9 | 1.0 | 7.0 | 0.00 | 0.00 | 0.00 | 38 | 996.9 |
| 20260503214053 | 87 | 300 | 4.0 | 7.0 | 0.00 | 0.00 | 0.00 | 38 | 997.0 |
| 20260503213542 | 87 | 252 | 3.0 | 7.0 | 0.00 | 0.00 | 0.00 | 36 | 997.0 |
| 20260503213016 | 86 | 329 | 1.0 | 8.0 | 0.00 | 0.00 | 0.00 | 40 | 997.0 |
| 20260503212602 | 87 | 46 | 3.0 | 8.0 | 0.00 | 0.00 | 0.00 | 38 | 997.1 |
| 20260503212051 | 87 | 292 | 2.0 | 8.0 | 0.00 | 0.00 | 0.00 | 36 | 997.1 |
| 20260503211511 | 86 | 348 | 4.0 | 8.0 | 0.00 | 0.00 | 0.00 | 41 | 997.1 |
| 20260503211102 | 86 | 270 | 1.0 | 7.0 | 0.00 | 0.00 | 0.00 | 35 | 997.2 |
| 20260503210549 | 86 | 49 | 3.0 | 9.0 | 0.00 | 0.00 | 0.00 | 41 | 997.2 |
| 20260503210005 | 86 | 43 | 3.0 | 9.0 | 0.00 | 0.00 | 0.00 | 39 | 997.3 |
| 20260503205555 | 86 | 51 | 2.0 | 9.0 | 0.00 | 0.00 | 0.00 | 37 | 997.3 |
| 20260503205044 | 86 | 331 | 3.0 | 9.0 | 0.00 | 0.00 | 0.00 | 36 | 997.4 |
| 20260503204503 | 86 | 30 | 2.0 | 8.0 | 0.00 | 0.00 | 0.00 | 44 | 997.5 |
| 20260503204053 | 85 | 18 | 1.0 | 10.0 | 0.00 | 0.00 | 0.00 | 40 | 997.6 |
| 20260503203542 | 85 | 275 | 2.0 | 10.0 | 0.00 | 0.00 | 0.00 | 39 | 997.7 |
| 20260503203004 | 85 | 333 | 3.0 | 9.0 | 0.00 | 0.00 | 0.00 | 41 | 997.7 |
| 20260503202555 | 85 | 350 | 5.0 | 9.0 | 0.00 | 0.00 | 0.00 | 41 | 997.8 |
| 20260503202042 | 84 | 300 | 3.0 | 8.0 | 0.00 | 0.00 | 0.00 | 42 | 997.9 |
| 20260503201512 | 83 | 347 | 2.0 | 10.0 | 0.00 | 0.00 | 0.00 | 40 | 997.9 |
| 20260503201105 | 83 | 17 | 3.0 | 10.0 | 0.00 | 0.00 | 0.00 | 47 | 997.9 |
| 20260503200549 | 83 | 14 | 3.0 | 9.0 | 0.00 | 0.00 | 0.00 | 43 | 998.0 |
| 20260503200007 | 83 | 273 | 1.0 | 5.0 | 0.00 | 0.00 | 0.00 | 45 | 998.1 |
| 20260503195558 | 83 | 32 | 3.0 | 7.0 | 0.00 | 0.00 | 0.00 | 47 | 998.2 |
| 20260503195048 | 82 | 87 | 2.0 | 7.0 | 0.00 | 0.00 | 0.00 | 44 | 998.3 |
| 20260503194508 | 82 | 317 | 2.0 | 6.0 | 0.00 | 0.00 | 0.00 | 45 | 998.3 |
| 20260503194058 | 81 | 284 | 2.0 | 6.0 | 0.00 | 0.00 | 0.00 | 45 | 998.4 |
| 20260503193547 | 82 | 295 | 2.0 | 5.0 | 0.00 | 0.00 | 0.00 | 47 | 998.5 |
| 20260503193011 | 81 | 125 | 1.0 | 6.0 | 0.00 | 0.00 | 0.00 | 45 | 998.5 |
| 20260503192555 | 80 | 333 | 3.0 | 6.0 | 0.00 | 0.00 | 0.00 | 47 | 998.6 |
| 20260503192042 | 80 | 328 | 4.0 | 6.0 | 0.00 | 0.00 | 0.00 | 48 | 998.6 |
| 20260503191501 | 80 | 61 | 1.0 | 6.0 | 0.00 | 0.00 | 0.00 | 46 | 998.7 |
| 20260503191051 | 79 | 53 | 2.0 | 5.0 | 0.00 | 0.00 | 0.00 | 51 | 998.7 |
| 20260503190540 | 79 | 82 | 2.0 | 5.0 | 0.00 | 0.00 | 0.00 | 50 | 998.7 |
| 20260503190009 | 79 | 67 | 1.0 | 6.0 | 0.00 | 0.00 | 0.00 | 51 | 998.7 |
| 20260503185556 | 78 | 355 | 1.0 | 4.0 | 0.00 | 0.00 | 0.00 | 48 | 998.7 |
| 20260503185044 | 78 | 355 | 2.0 | 7.0 | 0.00 | 0.00 | 0.00 | 53 | 998.8 |
| 20260503184504 | 78 | 281 | 3.0 | 7.0 | 0.00 | 0.00 | 0.00 | 52 | 999.0 |
| 20260503184052 | 77 | 9 | 1.0 | 7.0 | 0.00 | 0.00 | 0.00 | 52 | 999.0 |
| 20260503183540 | 77 | 273 | 2.0 | 7.0 | 0.00 | 0.00 | 0.00 | 52 | 999.1 |
| 20260503183001 | 77 | 306 | 0.0 | 5.0 | 0.00 | 0.00 | 0.00 | 52 | 999.2 |
| 20260503182554 | 76 | 303 | 2.0 | 4.0 | 0.00 | 0.00 | 0.00 | 56 | 999.3 |
| 20260503182041 | 75 | 61 | 1.0 | 6.0 | 0.00 | 0.00 | 0.00 | 55 | 999.3 |
| 20260503181603 | 75 | 273 | 3.0 | 6.0 | 0.00 | 0.00 | 0.00 | 54 | 999.3 |
| 20260503181049 | 75 | 336 | 3.0 | 7.0 | 0.00 | 0.00 | 0.00 | 54 | 999.4 |
| 20260503180537 | 75 | 290 | 1.0 | 5.0 | 0.00 | 0.00 | 0.00 | 56 | 999.4 |
| 20260503180100 | 74 | 313 | 2.0 | 5.0 | 0.00 | 0.01 | 0.00 | 55 | 999.4 |
| 20260503175546 | 74 | 268 | 2.0 | 6.0 | 0.00 | 0.01 | 0.00 | 59 | 999.4 |
| 20260503175033 | 74 | 289 | 2.0 | 6.0 | 0.00 | 0.01 | 0.00 | 59 | 999.4 |
| 20260503174504 | 73 | 298 | 3.0 | 6.0 | 0.00 | 0.01 | 0.00 | 57 | 999.4 |
| 20260503174053 | 73 | 323 | 3.0 | 7.0 | 0.00 | 0.01 | 0.00 | 57 | 999.5 |
| 20260503173539 | 73 | 300 | 3.0 | 7.0 | 0.00 | 0.01 | 0.00 | 58 | 999.6 |